STARLINK-1941 (46793 NORAD) Tracking and Keplerian Element Data

This shows tracking and keplerian element data for the satellite.

Feedback or suggestion? Click here.




ElementValue
Catalog46793
NameSTARLINK-1941
Epoch Orbit528
Epoch Day331.16668981
Epoch Year2020
RAAN0.784
Inclination53.0562
Eccentricity0.0001198
Argument of Perigee73.1946
Mean Anonmoly136.0414
Mean Motion15.62748837
Decay Rate2.3E-06
L11 46793U 20074BG 20331.16668981 .00000230 00000-0 83403-5 0 9994
L22 46793 53.0562 0.7840 0001198 73.1946 136.0414 15.62748837 5285

Live tracking and technical data element details for STARLINK-1941 (NORAD 46793). STARLINK-1941 can be tracked NOW for your location showing map with azimuth and elevation plus other details from your city location.

Track the satellite on the map from your city or location and see movement details for azimuth, elevation, latitude, longitude, range, height, and movement on the map or in text.







IsCatalogInMostPopularTable: catalog: 46793, numindb: 7
Update: records affected: 1



GetName: 46793 STARLINK-1941

Hit Count: updated at: Thu, 26 Nov 2020 20:20:59 GMT